Regional Weather Roundup
Issued by NWS

Home | Current Version | Previous Version | Text Only | Print | Product List | Glossary Off
Versions: 1 2 3 4 5 6 7 8 9 10 11 12 13 14 15 16 17 18 19 20 21 22 23 24 25 26 27 28 29 30 31 32 33 34 35 36 37 38 39 40 41 42 43 44 45 46 47 48 49 50

000
ASUS43 KIND 260609
RWRIN

WEATHER ROUNDUP FOR INDIANA
NATIONAL WEATHER SERVICE INDIANAPOLIS IN
200 AM EDT FRI AUG 26 2016

NOTE: "FAIR" INDICATES FEW OR NO CLOUDS BELOW 12,000 FEET WITH NO
SIGNIFICANT WEATHER AND/OR OBSTRUCTIONS TO VISIBILITY.

* - STATION DOES NOT REPORT WEATHER SUCH AS PRECIPITATION OR FOG.

+ - STATION NOT QUALITY CONTROLLED BY THE NATIONAL WEATHER SERVICE.
    USE DATA WITH CAUTION...ESPECIALLY DEWPOINT AND RELATIVE
    HUMIDITY OBSERVATIONS.

INZ001>003-010>013-019-020-260700-
NORTHWEST INDIANA

CITY           SKY/WX    TMP DP  RH WIND       PRES   REMARKS
GARY /AIRPORT/ FAIR      68  68 100 CALM      30.10S FOG
KNOX *+          N/A     66  59  77 CALM      30.09R VSB 1
LA PORTE +     FAIR     N/A N/A N/A CALM      30.11R HAZE
MICHIGAN CITY+ FAIR      64  64 100 MISG      30.10S FOG
MONTICELLO +   FAIR      69  65  87 CALM      30.08S FOG
6HR MIN TEMP:  69; 6HR MAX TEMP:  80;

VALPARAISO     FAIR      69  66  90 CALM      30.11R
6HR MIN TEMP:  69; 6HR MAX TEMP:  77; 6HR PCP: TRACE;


$$

LMZ046-743>745-260700-
SOUTHERN LAKE MICHIGAN

STATION/POSITION TIME  TEMP    WIND        PRES    WAVE
                       AIR SEA DIR/SP/G            HT
                 (UTC) (F)     (DEG/KT/KT) (MB)    (FT)
BURNS HARBOR     0602   72     240/  3/  4 1019.6R
MICHIGAN CITY    0500   73     170/  2/  3   N/A
5NW MICH CITY    0600   74 75  270/  4/  6   N/A     1

$$

INZ004-005-014>016-021>024-260700-
NORTH CENTRAL INDIANA

CITY           SKY/WX    TMP DP  RH WIND       PRES   REMARKS
GOSHEN         FOG       67  65  93 CALM      30.09S VSB 1/4
6HR MIN TEMP:  67; 6HR MAX TEMP:  77;

LOGANSPORT +   FAIR      70  70 100 CALM      30.10S
PERU/GRISSOM   FAIR      72  72 100 CALM      30.09R
6HR MIN TEMP:  71; 6HR MAX TEMP:  80;

ROCHESTER +    FOG       72  72 100 CALM      30.10S VSB 3/4
SOUTH BEND     FAIR      66  65  96 CALM      30.10R
6HR MIN TEMP:  66; 6HR MAX TEMP:  75; 6HR PCP: TRACE;

WARSAW +       FOG       68  68 100 CALM      30.10R VSB 3/4

$$

INZ006>009-017-018-025>027-260700-
NORTHEAST INDIANA

CITY           SKY/WX    TMP DP  RH WIND       PRES   REMARKS
AUBURN +       FAIR      70  68  94 CALM      30.10R FOG
FORT WAYNE     MOCLDY    72  69  90 NW3       30.10R
6HR MIN TEMP:  72; 6HR MAX TEMP:  80;

HUNTINGTON +   FAIR     N/A N/A N/A CALM      30.09S

$$

INZ028-029-035-036-043>045-051>053-260700-
WEST CENTRAL INDIANA

CITY           SKY/WX    TMP DP  RH WIND       PRES   REMARKS
LAFAYETTE      FAIR      71  71 100 CALM      30.09R
6HR MIN TEMP:  70; 6HR MAX TEMP:  80;

TERRE HAUTE    MOCLDY    75  72  90 CALM      30.10R
6HR MIN TEMP:  74; 6HR MAX TEMP:  84;


$$

INZ030>032-037>040-046>048-054>057-064-065-260700-
CENTRAL INDIANA

CITY           SKY/WX    TMP DP  RH WIND       PRES   REMARKS
INDIANAPOLIS   MOCLDY    77  73  87 CALM      30.09R
6HR MIN TEMP:  76; 6HR MAX TEMP:  83; 6HR PCP: TRACE;

-EAGLE CREEK   MOCLDY    77  73  87 CALM      30.09R
6HR MIN TEMP:  76; 6HR MAX TEMP:  84;

MARION +       FAIR      72  70  92 CALM      30.11R FOG
MT COMFORT *+  MOCLDY    72  72 100 SW3       30.11R
SHELBYVILLE    FAIR      75  72  90 CALM      30.09R
6HR MIN TEMP:  75; 6HR MAX TEMP:  84;

ZIONSVILLE +   FAIR      69  69  99 CALM      30.11R
6HR MIN TEMP:  68; 6HR MAX TEMP:  79;


$$

INZ033-034-041-042-049-050-058-059-260700-
EAST CENTRAL INDIANA

CITY           SKY/WX    TMP DP  RH WIND       PRES   REMARKS
MUNCIE         FAIR      73  70  90 CALM      30.10R
6HR MIN TEMP:  72; 6HR MAX TEMP:  83;


$$

INZ060-061-067>069-081>083-085>088-260700-
SOUTHWEST INDIANA

CITY           SKY/WX    TMP DP  RH WIND       PRES   REMARKS
EVANSVILLE     FAIR      75  71  87 CALM      30.09S
6HR MIN TEMP:  74; 6HR MAX TEMP:  85;

HUNTINGBURG *+ FAIR      73  70  88 CALM      30.10R
6HR MIN TEMP:  72; 6HR MAX TEMP:  84;

WASHINGTON +   FAIR      73  73 100 MISG      30.08S
6HR MIN TEMP:  73; 6HR MAX TEMP:  86;


$$

INZ062-063-066-070>080-084-089>092-260700-
SOUTH CENTRAL AND SOUTHEAST INDIANA

CITY           SKY/WX    TMP DP  RH WIND       PRES   REMARKS
BLOOMINGTON    FAIR      73  70  90 CALM      30.10R
6HR MIN TEMP:  73; 6HR MAX TEMP:  82;

MADISON *+     FAIR      72  70  94 CALM      30.13R

$$




USA.gov is the U.S. government's official web portal to all federal, state and local government web resources and services.